Simultaneous Nadir Overpasses (SNOs) Predictions

Prediction of SNOs between NOAA-19 and TERRA Satellite Orbit:

Table of predicted SNOs for the next 14.0 days since TLE Epoch: 8/21/2016
Index Date (NOAA-19) Time (NOAA-19) Lat,Lon (NOAA-19) SZA (NOAA-19 ) Date (TERRA) Time (TERRA) Lat,Lon (TERRA) SZA (TERRA ) Distance(km) Time Diff (sec)
1 08/23/2016 01:29:01 74.12, 165.54 62.83 08/23/2016 01:29:07 74.11, 165.61 62.82 2.37 6
2 08/23/2016 02:19:53 -73.54, -25.76 117.68 08/23/2016 02:18:45 -73.57, -27.94 117.75 68.64 68
3 08/25/2016 06:12:08 74.46, 93.93 63.89 08/25/2016 06:13:18 74.36, 95.12 63.85 37.31 70
4 08/25/2016 07:03:05 -74.10, -97.88 116.42 08/25/2016 07:02:51 -74.08, -97.88 116.44 1.90 14
5 08/27/2016 11:46:07 -74.18,-168.79 115.57 08/27/2016 11:47:05 -74.18,-168.74 115.57 1.81 58
6 08/27/2016 12:37:02 74.08, -1.26 64.35 08/27/2016 12:36:32 74.09, -1.29 64.35 1.49 30
7 08/29/2016 17:20:04 74.18, -72.23 65.23 08/29/2016 17:20:46 74.18, -72.16 65.23 2.15 42
8 08/29/2016 18:11:07 -74.08, 95.28 114.85 08/29/2016 18:10:16 -74.06, 95.21 114.88 2.75 51
9 08/31/2016 22:54:09 -74.17, 24.34 113.97 08/31/2016 22:54:30 -74.15, 24.34 113.99 2.21 21
10 08/31/2016 23:45:04 74.09,-168.20 65.98 08/31/2016 23:43:56 74.11,-168.10 65.98 3.57 68
11 09/03/2016 04:28:05 74.15, 120.95 66.84 09/03/2016 04:28:11 74.14, 120.91 66.83 1.55 6
